DELTA 1 DEB

Satellite information

Favourite Embed

Satellite Type and Status

DEBRISIN ORBIT

Key statistics

Satellite DELTA 1 DEB at a glance.

Uptime

20722

Days in orbit

Revolutions

≈ 12.4

Per day

Orbit

SSO

Sun Synchronous Orbit

Inclination

102.5

Latest

Satellite identification and parameters

Extended collection of information and parameters for DELTA 1 DEB.

Object identification

Identified? True

Debris? True

Object name: DELTA 1 DEB

International designator: 1968-114D

Object number (NORAD): 3812

Object ID (CCSDS): 3812

Country: UNITED STATES OF AMERICA (US)

Current information (Y/N): Y

RCS size: SMALL

Orbital parameters

Period: 116.337 minutes

Inclination: 102.458 deg

SMA: 7894.17 km

Apoapsis: 1572.077 km

Periapsis: 1459.994 km

RAAN: 255.9523 deg

Eccentricy: 0.00709913

Argument of periapsis: 338.6533 deg

Mean anomaly: 78.2345 deg

Mean motion: 12.37778743 rev/day

Mean motion (dot): -0.00000031 rev/day2

B* drag term: 0.00012396796 1/REarth

Two-line elements (TLE)

Creation date: Sept. 1, 2025, 10:16 a.m.

Reference frame: TEME

Reference center: EARTH

Epoch: Aug. 31, 2025, 11:55 p.m. UTC

TLE line 0: 0 DELTA 1 DEB

TLE line 1: 1 03812U 68114D 25243.99654628 -.00000031 00000-0 12397-3 0 9999

TLE line 2: 2 03812 102.4580 255.9523 0070991 338.6533 78.2345 12.37778743561846

Live tracking on map

Real-time ground track for satellite DELTA 1 DEB.

In-orbit conjunctions

A list of the most updated potential collisions computed for object DELTA 1 DEB.

Target Orbit TCA Probability of collision Miss distance Type
COSMOS 1288 LEO 2025-06-06 20:25:39 0.0002198036 465.0 (m) PAYLOAD
COSMOS 738 LEO 2024-07-31 07:24:33 0.0001691387 192.0 (m) PAYLOAD

Associated space launch

The ESSA series was the second generation of US meterological satellites after the TIROS (Television & Infra-Red Observation Satellite) series. They were also called OT (Operational TIROS), TOS (TIROS Operational Satellite).

DELTA 1 DEB was lifted into orbit during the mission ‘Thor Delta N | ESSA 8’, on board a Thor Delta N space rocket.

The launch took place on Dec. 15, 1968, 5:21 p.m. from Space Launch Complex 2E.

For more information about the launch, click the button.

Launch to space Thor Delta N | ESSA 8
Thor Delta N | ESSA 8

Agency: N/A

Status: Launch Successful

Launch date: Dec. 15, 1968, 5:21 p.m. UTC

Rocket: Thor Delta N

Launch pad: Space Launch Complex 2E

Location: Vandenberg SFB, CA, USA

...

Latest news about this satellite

There are no fresh news available about this satellite. Check back as we update our databases every day.


Newsletter sign-up

Weekly statistics, charts and insights to help you stay on top of the space industry.